Overview Statistics Trail Chart Weather Telemetry Raw packets
 

This is the latest recevied weather packets stored in our database for station/object AJ1L. If no packets are shown the sender has not sent any weather packets the latest 10 day(s).

<< 1 2 3 4 5 >>
Time Temp. Humidity Pressure Rain* Wind** Luminosity Snow
1788545218 27.78° C 59% 1008.1 hPa 0 mm - - -
1788544218 27.22° C 57% 1008.1 hPa 0 mm - - -
1788543218 26.67° C 62% 1008.1 hPa 0 mm - - -
1788542218 27.22° C 63% 1008.3 hPa 0 mm - - -
1788541218 27.22° C 65% 1008.4 hPa 0 mm - - -
1788540218 26.67° C 64% 1008.5 hPa 0 mm - - -
1788539218 26.67° C 67% 1008.6 hPa 0 mm - - -
1788538235 26.11° C 68% 1008.9 hPa 0 mm - - -
1788537218 26.11° C 68% 1008.8 hPa 0 mm - - -
1788536218 25.56° C 71% 1009 hPa 0 mm - - -
1788535222 25.56° C 74% 1009 hPa 0 mm - - -
1788534218 24.44° C 75% 1009.2 hPa 0 mm - - -
1788532217 22.22° C 90% 1009.5 hPa 0 mm - - -
1788531217 21.11° C 94% 1009.5 hPa 0 mm - - -
1788530218 20.56° C 96% 1009.6 hPa 0 mm - - -
1788528217 20° C 96% 1009.7 hPa 0 mm - - -
1788527218 19.44° C 96% 1009.7 hPa 0 mm - - -
1788526217 19.44° C 96% 1009.8 hPa 0 mm - - -
1788525218 18.89° C 96% 1009.8 hPa 0 mm - - -
1788523218 18.89° C 96% 1009.8 hPa 0 mm - - -
1788522217 18.33° C 96% 1009.8 hPa 0 mm - - -
1788521218 18.33° C 96% 1009.7 hPa 0 mm - - -
1788520217 18.33° C 96% 1009.7 hPa 0 mm - - -
1788519217 18.33° C 96% 1009.7 hPa 0 mm - - -
1788518217 18.33° C 96% 1009.5 hPa 0 mm - - -

* Rain latest hour (hover to see other rain measurements)
** Current wind speed in m/s (hover to see current wind gust speed)